Location: Deerlick Astronomy Village
(33.5614°N, 82.7631°W)
Time: 18:58:36
(UTC-05:00)

N. Korean satellite - Visible Passes

Search period start: 15 January 2021 00:00
Search period end: 25 January 2021 00:00
Orbit: 453 x 502 km, 97.2° (Epoch: 15 January)

Date Brightness Start Highest point End Pass type
(mag) Time Alt. Az. Time Alt. Az. Time Alt. Az.
15 Jan 6.5 05:51:20 10° NNE 05:54:50 79° ESE 05:58:16 10° S visible
16 Jan 8.4 05:25:08 10° NE 05:28:15 30° E 05:31:18 10° SSE visible
16 Jan 8.4 07:00:02 10° NW 07:01:12 11° WNW 07:02:22 10° W visible
17 Jan 9.8 04:59:54 10° ENE 05:01:33 13° E 05:03:12 10° ESE visible
17 Jan 7.5 06:31:57 10° NNW 06:34:52 25° WNW 06:37:44 10° SW visible
18 Jan 6.3 06:04:58 10° N 06:08:25 62° WNW 06:11:49 10° SSW visible
19 Jan 7.4 05:38:30 10° NNE 05:41:53 48° E 05:45:11 10° S visible
20 Jan 9.1 05:12:39 10° NE 05:15:14 20° E 05:17:47 10° SE visible
20 Jan 8.0 06:46:07 10° NNW 06:48:21 16° WNW 06:50:35 10° WSW visible
21 Jan 6.9 06:18:44 10° N 06:21:57 37° WNW 06:25:08 10° SW visible
21 Jan 10.4 18:25:14 10° WSW 18:26:03 11° W 18:26:52 10° W visible
22 Jan 6.4 05:51:59 10° NNE 05:55:27 81° E 05:58:51 10° S visible
23 Jan 8.3 05:25:46 10° NE 05:28:51 30° E 05:31:53 10° SSE visible
23 Jan 8.4 07:00:56 10° NW 07:01:48 11° WNW 07:02:41 10° W visible
24 Jan 9.7 05:00:29 10° ENE 05:02:09 13° E 05:03:49 10° ESE visible
24 Jan 7.5 06:32:37 10° NNW 06:35:27 24° WNW 06:38:14 10° SW visible
